Погода в Землянске

Россия / Воронежская область     51°53′59″N   38°43′58″E
темп.,
°C
ветер,
м/с
пор.,
м/с
влажн.,
%
обл.,
%
осадки,
мм/ч
давл.,
гПа
погр.,
м
20 мая, пт
пт2000:00+9сз368239 0.0 101487
03:00+7ссз348987 0.0 101466
06:00+8ссз5108894 0.0 1015332
09:00+11с577688 0.5 1016865
12:00+11с5663100 0.1 10161305
15:00+12с5651100 0.1 10161734
18:00+11ссв4660100 0.0 1016946
21:00+8св3368100 0.0 101758
21 мая, сб
сб2100:00+7вюв2260100 0.0 101633
03:00+5юв3463100 0.0 101564
06:00+6юв3670100 0.0 1015198
09:00+9юв5858100 0.0 1012633
12:00+9ююв5663100 0.1 10111069
15:00+8юв578094 1.3 1010860
18:00+7юв4783100 0.0 1009555
21:00+7юв3886100 0.0 1008430
22 мая, вс
вс2200:00+6вюв3785100 0.0 1006376
03:00+6в3785100 0.1 1004331
06:00+5в51090100 0.9 1002443
09:00+5в5994100 5.3 1001746
12:00+6в51093100 7.4 1002822
15:00+7вюв3790100 8.6 1002921
18:00+7ссв1292100 0.3 1003225
21:00+6с129497 0.4 100479
23 мая, пн
пн2300:00+5ссз33955 0.0 100449
03:00+3с34895 0.0 100553
06:00+4ссз35895 0.0 1006139
09:00+9с45670 0.0 1007750
12:00+12с4548100 0.1 10072142
15:00+11с455199 0.1 10071647
18:00+12сз355623 0.0 10071548
21:00+7зсз46725 0.0 100980
24 мая, вт
вт2400:00+6зсз467119 0.0 100992
03:00+4зсз46835 0.0 1010106
06:00+5сз497583 0.0 1011223
09:00+10сз5758100 0.0 1011503
12:00+12сз6750100 0.0 10111353
15:00+13ссз7944100 0.0 10121754
18:00+13ссз5105971 0.0 10121616
21:00+9ссз357063 0.0 101465